20040408,000018,1382408,34.392560,-122.258370,NaN,15.561,33.006,41.248,2117.83,0.0, NaN,13.820,13.783, NaN,24.313,   NaN,13.86,1016.33,86.27,13.47,0.4,1.2,12.4,14.4,327.5,328.2,12.1,14.0,NaN, NaN,NaN,210.8,NaN,1081382419,NaN,NaN,1.0,000019,   NaN,325.5,34.392430,-122.258300,-0.18,NaN,NaN,15.565, NaN,NaN,NaN, NaN, NaN
20040408,000048,1382438,34.392620,-122.258450,NaN,15.369,33.003,41.064,2116.63,0.0, NaN,13.818,13.781, NaN,24.352,   NaN,13.80,1016.33,85.98,13.45,0.8,1.5,12.6,14.6,327.8,328.4,12.3,14.3,NaN, NaN,NaN,358.1,NaN,1081382449,NaN,NaN,0.7,000049,   NaN,328.1,34.392490,-122.258400,-0.34,NaN,NaN,15.373, NaN,NaN,NaN, NaN, NaN
20040408,000118,1382468,34.392720,-122.258580,NaN,15.298,33.008,41.004,2109.35,0.0, NaN,13.819,13.781, NaN,24.372,   NaN,13.83,1016.28,86.22,13.47,0.2,0.9,12.8,14.7,329.0,329.7,12.4,14.4,NaN, NaN,NaN,359.7,NaN,1081382480,NaN,NaN,2.0,000079,   NaN,331.2,34.392580,-122.258520,-0.13,NaN,NaN,15.302, NaN,NaN,NaN, NaN, NaN
20040408,000148,1382498,34.392820,-122.258640,NaN,15.289,32.986,40.971,2074.03,0.0, NaN,13.820,13.783, NaN,24.357,   NaN,13.81,1016.32,86.15,13.46,1.4,359.6,12.3,14.3,331.7,329.8,11.8,13.8,NaN, NaN,NaN,256.6,NaN,1081382510,NaN,NaN,2.6,000109,   NaN,332.4,34.392680,-122.258590,0.07,NaN,NaN,15.293, NaN,NaN,NaN, NaN, NaN
20040408,000218,1382527,34.392920,-122.258700,NaN,15.372,32.985,41.047,2084.45,0.0, NaN,13.820,13.783, NaN,24.338,   NaN,13.86,1016.32,86.51,13.50,2.2,357.9,11.8,13.8,333.1,328.9,11.4,13.4,NaN, NaN,NaN,324.0,NaN,1081382540,NaN,NaN,0.0,000139,   NaN,331.1,34.392780,-122.258650,0.07,NaN,NaN,15.376, NaN,NaN,NaN, NaN, NaN
20040408,000248,1382558,34.393000,-122.258780,NaN,15.252,32.982,40.931,2100.68,0.0, NaN,13.819,13.783, NaN,24.362,   NaN,13.95,1016.26,86.75,13.53,6.8,357.3,11.6,13.2,337.3,327.7,11.3,12.8,NaN, NaN,NaN,254.5,NaN,1081382570,NaN,NaN,1.4,000169,   NaN,327.2,34.392860,-122.258720,-0.30,NaN,NaN,15.256, NaN,NaN,NaN, NaN, NaN
20040408,000318,1382588,34.393050,-122.258880,NaN,15.194,32.990,40.886,2097.47,0.0, NaN,13.818,13.782, NaN,24.381,   NaN,13.87,1016.28,86.26,13.50,11.7,358.0,11.5,13.7,340.9,327.1,11.4,13.3,NaN, NaN,NaN,264.5,NaN,1081382600,NaN,NaN,2.4,000199,   NaN,328.2,34.392910,-122.258820,-0.46,NaN,NaN,15.198, NaN,NaN,NaN, NaN, NaN
20040408,000349,1382618,34.393140,-122.258990,NaN,15.167,32.985,40.856,2098.32,0.0, NaN,13.814,13.781, NaN,24.383,   NaN,13.88,1016.30,86.54,13.51,5.0,359.5,11.8,13.8,335.5,329.7,11.6,13.4,NaN, NaN,NaN,34.7,NaN,1081382630,NaN,NaN,1.1,000229,   NaN,332.2,34.393000,-122.258950,-0.21,NaN,NaN,15.171, NaN,NaN,NaN, NaN, NaN
20040408,000419,1382649,34.393250,-122.259080,NaN,15.151,32.980,40.835,2104.79,0.0, NaN,13.812,13.777, NaN,24.382,   NaN,13.83,1016.24,86.12,13.48,354.3,358.0,12.4,13.9,326.9,330.5,12.0,13.5,NaN, NaN,NaN,301.6,NaN,1081382660,NaN,NaN,1.7,000259,   NaN,333.9,34.393110,-122.259040,-0.13,NaN,NaN,15.155, NaN,NaN,NaN, NaN, NaN
20040408,000449,1382679,34.393370,-122.259140,NaN,15.168,32.986,40.857,2101.88,0.0, NaN,13.812,13.777, NaN,24.383,   NaN,13.76,1016.26,85.97,13.45,352.9,355.3,12.8,14.6,326.7,328.8,12.4,14.1,NaN, NaN,NaN,87.9,NaN,1081382690,NaN,NaN,0.4,000289,   NaN,332.6,34.393240,-122.259090,0.12,NaN,NaN,15.172, NaN,NaN,NaN, NaN, NaN
20040408,000519,1382709,34.393490,-122.259200,NaN,15.189,32.995,40.888,2105.80,0.0, NaN,13.812,13.780, NaN,24.386,   NaN,13.79,1016.30,86.12,13.45,357.5,353.9,12.2,14.4,329.4,325.8,11.7,13.9,NaN, NaN,NaN,17.8,NaN,1081382720,NaN,NaN,1.9,000319,   NaN,328.7,34.393360,-122.259140,0.06,NaN,NaN,15.193, NaN,NaN,NaN, NaN, NaN
20040408,000549,1382739,34.393600,-122.259280,NaN,15.207,33.001,40.911,2106.21,0.0, NaN,13.814,13.782, NaN,24.386,   NaN,13.86,1016.28,86.39,13.46,1.6,357.3,12.1,14.4,330.5,326.2,11.7,13.9,NaN, NaN,NaN,14.9,NaN,1081382750,NaN,NaN,1.7,000349,   NaN,326.1,34.393470,-122.259210,-0.08,NaN,NaN,15.211, NaN,NaN,NaN, NaN, NaN
20040408,000619,1382769,34.393690,-122.259380,NaN,15.226,33.005,40.932,2099.77,0.0, NaN,13.815,13.782, NaN,24.385,   NaN,13.82,1016.20,86.12,13.46,6.2,1.1,12.4,14.3,333.8,328.5,11.9,13.8,NaN, NaN,NaN,301.3,NaN,1081382780,NaN,NaN,2.5,000379,   NaN,327.1,34.393550,-122.259310,-0.18,NaN,NaN,15.230, NaN,NaN,NaN, NaN, NaN
20040408,000649,1382799,34.393780,-122.259450,NaN,15.351,33.008,41.054,2086.50,0.0, NaN,13.817,13.782, NaN,24.360,   NaN,13.83,1016.25,86.19,13.44,5.1,359.9,12.4,14.3,333.9,328.3,12.1,13.8,NaN, NaN,NaN,83.0,NaN,1081382810,NaN,NaN,2.0,000409,   NaN,332.1,34.393640,-122.259400,-0.13,NaN,NaN,15.355, NaN,NaN,NaN, NaN, NaN
20040408,000719,1382829,34.393880,-122.259500,NaN,15.540,33.007,41.229,2081.08,0.0, NaN,13.819,13.783, NaN,24.318,   NaN,13.86,1016.25,86.33,13.48,358.3,356.3,12.0,13.9,329.9,327.8,11.7,13.5,NaN, NaN,NaN,299.5,NaN,1081382840,NaN,NaN,1.6,000439,   NaN,335.7,34.393740,-122.259460,0.12,NaN,NaN,15.544, NaN,NaN,NaN, NaN, NaN
20040408,000749,1382859,34.393980,-122.259500,NaN,15.359,33.006,41.059,2066.05,0.0, NaN,13.820,13.784, NaN,24.357,   NaN,13.85,1016.31,86.23,13.49,353.6,353.7,11.9,13.8,327.4,327.4,11.5,13.4,NaN, NaN,NaN,107.2,NaN,1081382870,NaN,NaN,2.7,000469,   NaN,330.6,34.393840,-122.259430,0.03,NaN,NaN,15.363, NaN,NaN,NaN, NaN, NaN
20040408,000819,1382889,34.394060,-122.259510,NaN,15.309,33.012,41.018,2064.98,0.0, NaN,13.820,13.784, NaN,24.372,   NaN,13.87,1016.24,86.29,13.50,355.4,355.8,12.2,14.1,327.5,327.9,12.0,13.9,NaN, NaN,NaN,21.6,NaN,1081382900,NaN,NaN,1.8,000499,   NaN,328.0,34.393920,-122.259440,0.07,NaN,NaN,15.313, NaN,NaN,NaN, NaN, NaN
20040408,000849,1382919,34.394180,-122.259590,NaN,15.464,33.008,41.159,2061.97,0.0, NaN,13.820,13.784, NaN,24.335,   NaN,13.86,1016.28,86.23,13.49,0.4,358.7,12.2,14.2,329.5,327.6,11.9,13.9,NaN, NaN,NaN,325.5,NaN,1081382930,NaN,NaN,1.8,000529,   NaN,327.2,34.394040,-122.259520,0.15,NaN,NaN,15.468, NaN,NaN,NaN, NaN, NaN
20040408,000919,1382948,34.394290,-122.259690,NaN,15.552,33.006,41.240,2070.58,0.0, NaN,13.820,13.784, NaN,24.314,   NaN,13.86,1016.28,86.23,13.49,2.0,0.8,12.3,14.4,329.2,327.9,11.8,13.9,NaN, NaN,NaN,302.1,NaN,1081382960,NaN,NaN,0.0,000559,   NaN,326.1,34.394160,-122.259610,-0.06,NaN,NaN,15.556, NaN,NaN,NaN, NaN, NaN
20040408,000949,1382979,34.394420,-122.259810,NaN,15.542,33.009,41.233,2077.85,0.0, NaN,13.819,13.782, NaN,24.318,   NaN,13.84,1016.27,86.08,13.48,1.1,1.5,12.7,14.9,328.2,328.5,12.2,14.3,NaN, NaN,NaN,236.8,NaN,1081382990,NaN,NaN,2.1,000589,   NaN,329.4,34.394270,-122.259750,-0.28,NaN,NaN,15.546, NaN,NaN,NaN, NaN, NaN
20040408,001019,1383009,34.394540,-122.259900,NaN,15.581,33.007,41.268,2075.53,0.0, NaN,13.820,13.782, NaN,24.309,   NaN,13.83,1016.30,86.13,13.47,3.7,359.3,12.7,15.0,333.1,328.8,12.2,14.4,NaN, NaN,NaN,296.2,NaN,1081383020,NaN,NaN,2.0,000619,   NaN,332.6,34.394400,-122.259850,-0.23,NaN,NaN,15.585, NaN,NaN,NaN, NaN, NaN
20040408,001049,1383039,34.394680,-122.259970,NaN,15.548,33.002,41.231,2070.17,0.0, NaN,13.819,13.783, NaN,24.312,   NaN,13.86,1016.38,86.33,13.49,1.9,357.6,11.7,14.2,333.7,329.3,11.2,13.6,NaN, NaN,NaN,290.3,NaN,1081383050,NaN,NaN,0.8,000649,   NaN,330.2,34.394530,-122.259910,0.07,NaN,NaN,15.552, NaN,NaN,NaN, NaN, NaN
20040408,001119,1383069,34.394820,-122.260040,NaN,15.563,33.010,41.254,2062.34,0.0, NaN,13.819,13.783, NaN,24.315,   NaN,13.95,1016.38,86.74,13.55,0.3,358.3,10.9,13.4,331.8,329.6,10.4,12.9,NaN, NaN,NaN,323.2,NaN,1081383080,NaN,NaN,3.1,000679,   NaN,331.2,34.394660,-122.259990,-0.02,NaN,NaN,15.567, NaN,NaN,NaN, NaN, NaN
20040408,001149,1383099,34.394900,-122.260110,NaN,15.541,33.010,41.234,2068.54,0.0, NaN,13.817,13.781, NaN,24.320,   NaN,14.01,1016.36,86.86,13.59,2.2,359.1,10.7,12.9,333.0,330.0,10.3,12.4,NaN, NaN,NaN,20.7,NaN,1081383110,NaN,NaN,1.9,000709,   NaN,331.2,34.394770,-122.260050,0.13,NaN,NaN,15.545, NaN,NaN,NaN, NaN, NaN
20040408,001219,1383129,34.395010,-122.260200,NaN,15.521,33.014,41.219,2072.03,0.0, NaN,13.814,13.779, NaN,24.327,   NaN,13.94,1016.31,86.49,13.55,4.6,2.1,11.4,13.0,334.5,332.1,11.0,12.5,NaN, NaN,NaN,267.2,NaN,1081383140,NaN,NaN,3.1,000739,   NaN,323.6,34.394870,-122.260120,-0.12,NaN,NaN,15.525, NaN,NaN,NaN, NaN, NaN
20040408,001249,1383159,34.395090,-122.260290,NaN,15.781,33.006,41.454,2062.63,0.0, NaN,13.813,13.781, NaN,24.263,   NaN,13.96,1016.35,86.75,13.55,8.2,5.5,11.9,12.6,335.5,332.9,11.5,12.2,NaN, NaN,NaN,310.4,NaN,1081383170,NaN,NaN,1.3,000769,   NaN,326.6,34.394950,-122.260220,-0.18,NaN,NaN,15.785, NaN,NaN,NaN, NaN, NaN
20040408,001319,1383189,34.395190,-122.260410,NaN,15.882,33.006,41.550,2054.59,0.0, NaN,13.815,13.782, NaN,24.241,   NaN,14.01,1016.39,86.91,13.59,10.3,4.7,11.6,12.3,338.3,332.6,11.2,11.9,NaN, NaN,NaN,301.0,NaN,1081383200,NaN,NaN,1.8,000799,   NaN,331.6,34.395050,-122.260360,-0.19,NaN,NaN,15.886, NaN,NaN,NaN, NaN, NaN
20040408,001349,1383219,34.395300,-122.260480,NaN,15.705,33.001,41.378,2047.51,0.0, NaN,13.815,13.782, NaN,24.277,   NaN,13.91,1016.38,86.39,13.54,2.8,359.6,11.4,13.5,334.6,331.3,10.9,12.9,NaN, NaN,NaN,16.2,NaN,1081383230,NaN,NaN,0.0,000829,   NaN,333.3,34.395160,-122.260430,-0.01,NaN,NaN,15.709, NaN,NaN,NaN, NaN, NaN
20040408,001419,1383249,34.395410,-122.260550,NaN,15.492,32.995,41.170,2038.66,0.0, NaN,13.814,13.779, NaN,24.319,   NaN,13.85,1016.34,86.33,13.51,356.6,356.5,11.6,14.3,329.4,329.2,11.1,13.8,NaN, NaN,NaN,29.8,NaN,1081383260,NaN,NaN,1.5,000859,   NaN,331.7,34.395260,-122.260500,0.05,NaN,NaN,15.496, NaN,NaN,NaN, NaN, NaN
20040408,001449,1383278,34.395570,-122.260630,NaN,15.396,33.007,41.094,2035.47,0.0, NaN,13.813,13.778, NaN,24.349,   NaN,13.86,1016.38,86.55,13.51,354.3,355.3,11.5,13.9,326.0,327.1,11.0,13.4,NaN, NaN,NaN,357.1,NaN,1081383290,NaN,NaN,1.3,000889,   NaN,332.1,34.395430,-122.260580,0.33,NaN,NaN,15.400, NaN,NaN,NaN, NaN, NaN
20040408,001519,1383309,34.395730,-122.260740,NaN,15.399,33.005,41.096,2044.30,0.0, NaN,13.812,13.777, NaN,24.348,   NaN,13.88,1016.36,86.59,13.51,357.5,357.7,12.0,14.0,326.0,326.4,11.4,13.3,NaN, NaN,NaN,0.9,NaN,1081383320,NaN,NaN,2.3,000919,   NaN,319.6,34.395600,-122.260660,0.07,NaN,NaN,15.403, NaN,NaN,NaN, NaN, NaN
20040408,001549,1383339,34.395880,-122.261010,NaN,15.420,32.993,41.101,2052.21,0.0, NaN,13.812,13.776, NaN,24.333,   NaN,13.86,1016.25,86.43,13.50,8.3,6.4,13.2,14.6,329.8,327.8,12.4,13.8,NaN, NaN,NaN,320.6,NaN,1081383350,NaN,NaN,2.7,000949,   NaN,308.1,34.395760,-122.260900,-0.20,NaN,NaN,15.424, NaN,NaN,NaN, NaN, NaN
20040408,001619,1383369,34.395980,-122.261340,NaN,15.427,33.009,41.126,2051.79,0.0, NaN,13.812,13.776, NaN,24.344,   NaN,13.85,1016.17,86.38,13.50,19.8,17.5,14.0,15.1,333.2,330.4,13.2,14.3,NaN, NaN,NaN,280.1,NaN,1081383380,NaN,NaN,2.3,000979,   NaN,305.2,34.395870,-122.261240,-0.62,NaN,NaN,15.431, NaN,NaN,NaN, NaN, NaN
20040408,001649,1383399,34.396090,-122.261690,NaN,15.424,32.998,41.110,2045.05,0.0, NaN,13.811,13.776, NaN,24.336,   NaN,13.88,1016.27,86.68,13.52,27.0,23.9,13.5,14.7,337.4,333.8,12.7,13.9,NaN, NaN,NaN,322.9,NaN,1081383410,NaN,NaN,2.1,001009,   NaN,309.6,34.395970,-122.261600,-0.46,NaN,NaN,15.428, NaN,NaN,NaN, NaN, NaN
20040408,001719,1383429,34.396190,-122.262020,NaN,15.411,33.008,41.109,2041.87,0.0, NaN,13.810,13.775, NaN,24.347,   NaN,13.91,1016.35,86.82,13.53,27.4,24.0,13.1,13.9,339.5,335.5,12.3,13.1,NaN, NaN,NaN,280.6,NaN,1081383440,NaN,NaN,2.3,001039,   NaN,311.1,34.396050,-122.261930,-0.51,NaN,NaN,15.415, NaN,NaN,NaN, NaN, NaN
20040408,001749,1383458,34.396320,-122.262310,NaN,15.385,33.000,41.076,2026.76,0.0, NaN,13.809,13.772, NaN,24.346,   NaN,13.95,1016.31,86.95,13.58,21.8,19.9,13.0,13.8,336.5,334.2,12.2,13.1,NaN, NaN,NaN,234.6,NaN,1081383470,NaN,NaN,1.8,001069,   NaN,316.7,34.396160,-122.262240,-0.49,NaN,NaN,15.389, NaN,NaN,NaN, NaN, NaN
20040408,001819,1383489,34.396470,-122.262600,NaN,15.383,33.003,41.077,2005.32,0.0, NaN,13.808,13.771, NaN,24.349,   NaN,13.95,1016.37,86.98,13.58,18.4,16.0,12.5,13.5,334.8,331.8,11.7,12.7,NaN, NaN,NaN,284.4,NaN,1081383500,NaN,NaN,3.3,001099,   NaN,311.9,34.396320,-122.262510,-0.43,NaN,NaN,15.387, NaN,NaN,NaN, NaN, NaN
20040408,001849,1383519,34.396600,-122.262880,NaN,15.395,33.006,41.092,2016.10,0.0, NaN,13.807,13.771, NaN,24.349,   NaN,14.01,1016.36,87.23,13.62,18.3,15.0,12.1,13.3,334.7,330.8,11.2,12.4,NaN, NaN,NaN,337.2,NaN,1081383530,NaN,NaN,0.6,001129,   NaN,311.1,34.396450,-122.262790,-0.39,NaN,NaN,15.399, NaN,NaN,NaN, NaN, NaN
20040408,001919,1383549,34.396710,-122.263150,NaN,15.410,33.003,41.102,2024.44,0.0, NaN,13.808,13.773, NaN,24.343,   NaN,14.01,1016.32,87.21,13.64,21.9,17.8,11.9,13.2,337.4,332.6,11.1,12.4,NaN, NaN,NaN,324.5,NaN,1081383560,NaN,NaN,1.0,001159,   NaN,312.4,34.396570,-122.263070,-0.38,NaN,NaN,15.414, NaN,NaN,NaN, NaN, NaN
20040408,001949,1383579,34.396800,-122.263430,NaN,15.399,33.008,41.098,2027.13,0.0, NaN,13.809,13.774, NaN,24.350,   NaN,13.95,1016.26,86.93,13.60,22.5,19.6,12.7,13.7,337.5,334.2,12.0,12.9,NaN, NaN,NaN,277.2,NaN,1081383590,NaN,NaN,2.8,001189,   NaN,311.8,34.396660,-122.263330,-0.45,NaN,NaN,15.403, NaN,NaN,NaN, NaN, NaN
20040408,002019,1383609,34.396900,-122.263690,NaN,15.376,33.008,41.077,2029.62,0.0, NaN,13.810,13.776, NaN,24.355,   NaN,13.91,1016.34,86.93,13.57,22.1,19.5,13.2,14.0,336.2,333.1,12.6,13.3,NaN, NaN,NaN,331.3,NaN,1081383620,NaN,NaN,2.3,001219,   NaN,310.6,34.396760,-122.263610,-0.71,NaN,NaN,15.380, NaN,NaN,NaN, NaN, NaN
20040408,002049,1383639,34.396970,-122.264000,NaN,15.361,33.000,41.053,2033.80,0.0, NaN,13.810,13.776, NaN,24.352,   NaN,13.89,1016.29,86.78,13.56,18.7,16.6,13.3,14.2,333.1,330.7,12.7,13.6,NaN, NaN,NaN,308.0,NaN,1081383650,NaN,NaN,3.0,001249,   NaN,317.1,34.396830,-122.263910,-0.52,NaN,NaN,15.365, NaN,NaN,NaN, NaN, NaN
20040408,002119,1383669,34.397090,-122.264250,NaN,15.408,33.014,41.113,2039.80,0.0, NaN,13.811,13.776, NaN,24.352,   NaN,13.91,1016.35,86.98,13.54,13.5,13.0,13.0,13.8,331.2,330.3,12.2,13.2,NaN, NaN,NaN,275.5,NaN,1081383680,NaN,NaN,2.9,001279,   NaN,318.7,34.396940,-122.264170,-0.32,NaN,NaN,15.412, NaN,NaN,NaN, NaN, NaN
20040408,002149,1383699,34.397200,-122.264400,NaN,15.506,33.006,41.196,2028.60,0.0, NaN,13.811,13.776, NaN,24.324,   NaN,13.96,1016.34,87.09,13.57,12.8,11.9,12.4,13.3,332.8,331.4,11.8,12.7,NaN, NaN,NaN,305.4,NaN,1081383710,NaN,NaN,2.3,001309,   NaN,319.2,34.397040,-122.264340,-0.39,NaN,NaN,15.510, NaN,NaN,NaN, NaN, NaN
20040408,002219,1383729,34.397260,-122.264590,NaN,15.579,32.996,41.254,2025.91,0.0, NaN,13.811,13.776, NaN,24.301,   NaN,13.93,1016.46,87.01,13.57,12.6,12.1,12.4,13.2,333.2,332.4,11.9,12.7,NaN, NaN,NaN,39.6,NaN,1081383740,NaN,NaN,2.8,001339,   NaN,321.9,34.397110,-122.264530,-0.41,NaN,NaN,15.583, NaN,NaN,NaN, NaN, NaN
20040408,002249,1383759,34.397280,-122.264700,NaN,15.411,33.006,41.107,2000.77,0.0, NaN,13.812,13.777, NaN,24.345,   NaN,13.97,1016.46,87.19,13.58,12.5,10.3,12.3,12.9,335.6,333.1,11.8,12.4,NaN, NaN,NaN,305.1,NaN,1081383770,NaN,NaN,1.1,001369,   NaN,323.6,34.397130,-122.264640,-0.29,NaN,NaN,15.415, NaN,NaN,NaN, NaN, NaN
20040408,002319,1383788,34.397270,-122.264730,NaN,15.395,32.958,41.038,1977.86,0.0, NaN,13.812,13.778, NaN,24.312,   NaN,14.00,1016.44,87.41,13.60,8.6,6.6,11.3,11.9,334.1,332.0,11.1,11.7,NaN, NaN,NaN,13.3,NaN,1081383800,NaN,NaN,3.1,001399,   NaN,328.1,34.397110,-122.264680,-0.21,NaN,NaN,15.399, NaN,NaN,NaN, NaN, NaN
20040408,002349,1383819,34.397260,-122.264800,NaN,15.515,32.965,41.159,1969.68,0.0, NaN,13.813,13.777, NaN,24.291,   NaN,14.02,1016.47,87.45,13.63,2.3,3.0,10.2,11.6,328.1,328.8,10.1,11.5,NaN, NaN,NaN,295.5,NaN,1081383830,NaN,NaN,1.6,001429,   NaN,322.6,34.397120,-122.264730,-0.13,NaN,NaN,15.519, NaN,NaN,NaN, NaN, NaN
20040408,002419,1383849,34.397320,-122.264900,NaN,15.499,32.958,41.136,1972.06,0.0, NaN,13.812,13.778, NaN,24.289,   NaN,14.00,1016.39,87.35,13.62,3.1,4.9,10.8,12.2,326.7,328.5,10.6,12.1,NaN, NaN,NaN,264.2,NaN,1081383860,NaN,NaN,1.1,001459,   NaN,318.2,34.397170,-122.264820,-0.28,NaN,NaN,15.503, NaN,NaN,NaN, NaN, NaN
20040408,002448,1383877,34.397390,-122.265020,NaN,15.220,32.936,40.850,1995.19,0.0, NaN,13.812,13.777, NaN,24.333,   NaN,13.96,1016.41,87.28,13.57,11.9,10.7,12.2,12.9,332.3,331.0,11.9,12.5,NaN, NaN,NaN,314.6,NaN,1081383890,NaN,NaN,2.1,001489,   NaN,318.4,34.397240,-122.264940,-0.45,NaN,NaN,15.224, NaN,NaN,NaN, NaN, NaN
20040408,002519,1383909,34.397450,-122.265170,NaN,15.179,33.007,40.891,2007.32,0.0, NaN,13.812,13.777, NaN,24.397,   NaN,14.00,1016.45,87.65,13.59,11.8,10.0,11.7,12.4,332.5,330.6,11.3,11.9,NaN, NaN,NaN,299.2,NaN,1081383920,NaN,NaN,0.9,001519,   NaN,320.1,34.397300,-122.265100,-0.36,NaN,NaN,15.183, NaN,NaN,NaN, NaN, NaN
20040408,002549,1383939,34.397540,-122.265320,NaN,15.220,32.998,40.919,1999.19,0.0, NaN,13.813,13.778, NaN,24.381,   NaN,14.05,1016.43,87.85,13.64,8.6,6.6,10.6,11.8,330.5,328.3,10.1,11.3,NaN, NaN,NaN,315.1,NaN,1081383950,NaN,NaN,1.4,001549,   NaN,321.6,34.397400,-122.265260,-0.20,NaN,NaN,15.224, NaN,NaN,NaN, NaN, NaN
20040408,002619,1383968,34.397610,-122.265440,NaN,15.173,32.924,40.793,1985.19,0.0, NaN,13.813,13.781, NaN,24.335,   NaN,14.05,1016.44,87.92,13.64,8.8,5.6,10.5,11.7,331.0,327.5,10.0,11.3,NaN, NaN,NaN,295.7,NaN,1081383980,NaN,NaN,1.4,001579,   NaN,320.6,34.397460,-122.265370,-0.40,NaN,NaN,15.177, NaN,NaN,NaN, NaN, NaN
20040408,002649,1383999,34.397640,-122.265550,NaN,15.120,32.931,40.751,1972.37,0.0, NaN,13.815,13.783, NaN,24.351,   NaN,14.07,1016.38,87.97,13.66,9.8,7.0,11.0,11.5,331.5,328.5,10.6,11.1,NaN, NaN,NaN,307.0,NaN,1081384010,NaN,NaN,0.9,001609,   NaN,318.4,34.397500,-122.265470,-0.55,NaN,NaN,15.124, NaN,NaN,NaN, NaN, NaN
20040408,002718,1384028,34.397660,-122.265660,NaN,15.084,32.979,40.770,1982.29,0.0, NaN,13.818,13.783, NaN,24.396,   NaN,13.99,1016.34,87.65,13.63,11.7,9.8,11.9,12.1,332.4,330.3,11.5,11.8,NaN, NaN,NaN,45.2,NaN,1081384040,NaN,NaN,3.4,001639,   NaN,320.2,34.397510,-122.265590,-0.74,NaN,NaN,15.088, NaN,NaN,NaN, NaN, NaN
20040408,002748,1384057,34.397740,-122.265800,NaN,15.150,33.010,40.867,1973.99,0.0, NaN,13.819,13.784, NaN,24.405,   NaN,13.94,1016.41,87.60,13.58,12.5,9.3,12.2,12.9,333.6,330.5,11.9,12.5,NaN, NaN,NaN,248.1,NaN,1081384069,NaN,NaN,1.5,001669,   NaN,321.1,34.397590,-122.265720,-0.56,NaN,NaN,15.154, NaN,NaN,NaN, NaN, NaN
20040408,002818,1384088,34.397820,-122.265930,NaN,15.293,33.004,40.995,1961.71,0.0, NaN,13.820,13.784, NaN,24.370,   NaN,13.98,1016.38,87.84,13.59,9.2,6.2,11.8,13.0,331.9,328.8,11.5,12.6,NaN, NaN,NaN,237.2,NaN,1081384099,NaN,NaN,1.5,001699,   NaN,322.6,34.397680,-122.265860,-0.39,NaN,NaN,15.297, NaN,NaN,NaN, NaN, NaN
20040408,002848,1384118,34.397880,-122.266050,NaN,15.366,33.002,41.061,1950.56,0.0, NaN,13.820,13.783, NaN,24.352,   NaN,13.91,1016.35,87.60,13.56,7.4,6.4,12.1,13.2,329.6,328.4,11.7,12.9,NaN, NaN,NaN,81.9,NaN,1081384130,NaN,NaN,1.1,001729,   NaN,318.3,34.397740,-122.265980,-0.30,NaN,NaN,15.370, NaN,NaN,NaN, NaN, NaN
20040408,002918,1384148,34.397900,-122.266180,NaN,15.283,32.472,40.392,1915.14,0.0, NaN,13.819,13.783, NaN,23.963,   NaN,13.90,1016.34,87.65,13.54,9.6,9.1,12.7,13.4,330.6,330.0,12.3,13.1,NaN, NaN,NaN,251.4,NaN,1081384160,NaN,NaN,3.2,001759,   NaN,319.9,34.397760,-122.266100,-0.55,NaN,NaN,15.287, NaN,NaN,NaN, NaN, NaN
20040408,002948,1384178,34.397950,-122.266270,NaN,15.174,32.942,40.814,1874.75,0.0, NaN,13.819,13.783, NaN,24.348,   NaN,13.92,1016.41,87.78,13.55,10.9,9.9,12.4,13.0,332.0,330.9,12.1,12.7,NaN, NaN,NaN,48.7,NaN,1081384190,NaN,NaN,1.1,001789,   NaN,320.6,34.397810,-122.266210,-0.50,NaN,NaN,15.178, NaN,NaN,NaN, NaN, NaN
20040408,003018,1384208,34.398000,-122.266420,NaN,15.163,32.969,40.834,1842.71,0.0, NaN,13.818,13.782, NaN,24.371,   NaN,13.95,1016.36,87.98,13.56,10.0,9.0,11.8,12.5,332.7,331.4,11.4,12.1,NaN, NaN,NaN,342.9,NaN,1081384220,NaN,NaN,1.3,001819,   NaN,323.8,34.397860,-122.266360,-0.39,NaN,NaN,15.167, NaN,NaN,NaN, NaN, NaN
20040408,003048,1384238,34.398090,-122.266540,NaN,15.375,32.960,41.022,1816.13,0.0, NaN,13.817,13.781, NaN,24.318,   NaN,13.96,1016.31,87.99,13.57,10.6,9.7,11.7,12.4,333.7,332.5,11.2,12.0,NaN, NaN,NaN,251.0,NaN,1081384250,NaN,NaN,2.9,001849,   NaN,319.6,34.397960,-122.266470,-0.28,NaN,NaN,15.379, NaN,NaN,NaN, NaN, NaN
20040408,003118,1384268,34.398170,-122.266720,NaN,15.276,32.921,40.886,1772.45,0.0, NaN,13.819,13.783, NaN,24.309,   NaN,13.91,1016.28,87.74,13.55,12.9,12.6,12.7,13.3,335.0,334.5,12.2,12.8,NaN, NaN,NaN,292.8,NaN,1081384279,NaN,NaN,1.1,001879,   NaN,317.3,34.398030,-122.266640,-0.44,NaN,NaN,15.280, NaN,NaN,NaN, NaN, NaN
20040408,003148,1384298,34.398200,-122.266870,NaN,15.121,32.971,40.796,1716.65,0.0, NaN,13.818,13.783, NaN,24.382,   NaN,13.85,1016.29,87.56,13.51,16.2,15.5,13.5,14.2,335.4,334.6,13.1,13.8,NaN, NaN,NaN,249.8,NaN,1081384310,NaN,NaN,0.9,001909,   NaN,315.2,34.398070,-122.266790,-0.76,NaN,NaN,15.125, NaN,NaN,NaN, NaN, NaN
20040408,003218,1384328,34.398240,-122.267040,NaN,15.143,33.007,40.857,1682.64,0.0, NaN,13.816,13.781, NaN,24.405,   NaN,13.80,1016.34,87.51,13.49,15.1,14.8,13.6,14.1,334.0,333.5,13.2,13.8,NaN, NaN,NaN,41.9,NaN,1081384340,NaN,NaN,0.0,001939,   NaN,320.2,34.398110,-122.266980,-0.64,NaN,NaN,15.147, NaN,NaN,NaN, NaN, NaN
20040408,003248,1384358,34.398320,-122.267200,NaN,15.239,33.007,40.947,1665.08,0.0, NaN,13.817,13.783, NaN,24.384,   NaN,13.85,1016.29,87.80,13.51,11.5,11.0,12.8,13.7,333.1,332.4,12.4,13.3,NaN, NaN,NaN,288.5,NaN,1081384370,NaN,NaN,2.9,001969,   NaN,322.7,34.398180,-122.267130,-0.50,NaN,NaN,15.243, NaN,NaN,NaN, NaN, NaN
20040408,003318,1384387,34.398370,-122.267280,NaN,15.296,33.007,41.000,1655.45,0.0, NaN,13.816,13.781, NaN,24.371,   NaN,13.89,1016.36,87.93,13.52,9.1,8.1,12.0,12.9,333.1,331.8,11.5,12.5,NaN, NaN,NaN,97.5,NaN,1081384400,NaN,NaN,0.8,001999,   NaN,322.9,34.398240,-122.267220,-0.22,NaN,NaN,15.300, NaN,NaN,NaN, NaN, NaN
20040408,003348,1384418,34.398410,-122.267370,NaN,15.226,32.993,40.919,1643.16,0.0, NaN,13.816,13.783, NaN,24.376,   NaN,13.88,1016.26,87.80,13.53,10.5,9.5,12.1,12.8,334.2,332.9,11.7,12.4,NaN, NaN,NaN,279.9,NaN,1081384430,NaN,NaN,1.9,002029,   NaN,319.7,34.398290,-122.267300,-0.25,NaN,NaN,15.230, NaN,NaN,NaN, NaN, NaN
20040408,003418,1384448,34.398490,-122.267510,NaN,15.176,32.979,40.857,1644.01,0.0, NaN,13.818,13.783, NaN,24.376,   NaN,13.84,1016.28,87.66,13.51,12.9,11.7,12.8,13.3,334.8,333.5,12.4,12.9,NaN, NaN,NaN,349.6,NaN,1081384459,NaN,NaN,1.6,002059,   NaN,319.2,34.398360,-122.267440,-0.35,NaN,NaN,15.180, NaN,NaN,NaN, NaN, NaN
20040408,003448,1384478,34.398590,-122.267690,NaN,15.121,32.949,40.773,1626.49,0.0, NaN,13.819,13.783, NaN,24.365,   NaN,13.83,1016.23,87.73,13.50,16.0,13.8,12.9,13.7,337.1,334.7,12.5,13.2,NaN, NaN,NaN,328.1,NaN,1081384489,NaN,NaN,2.0,002089,   NaN,321.4,34.398460,-122.267620,-0.41,NaN,NaN,15.125, NaN,NaN,NaN, NaN, NaN
20040408,003518,1384508,34.398680,-122.267870,NaN,15.355,32.922,40.961,1573.44,0.0, NaN,13.819,13.782, NaN,24.293,   NaN,13.91,1016.36,88.13,13.55,14.4,13.1,12.4,13.2,336.7,335.2,11.8,12.7,NaN, NaN,NaN,346.1,NaN,1081384520,NaN,NaN,1.9,002119,   NaN,320.6,34.398560,-122.267800,-0.58,NaN,NaN,15.359, NaN,NaN,NaN, NaN, NaN
20040408,003548,1384538,34.398740,-122.268000,NaN,15.355,32.911,40.949,1504.06,0.0, NaN,13.818,13.782, NaN,24.284,   NaN,13.89,1016.28,87.97,13.53,13.6,12.1,12.1,12.7,335.9,334.2,11.6,12.2,NaN, NaN,NaN,327.3,NaN,1081384550,NaN,NaN,0.9,002149,   NaN,318.4,34.398620,-122.267920,-0.39,NaN,NaN,15.359, NaN,NaN,NaN, NaN, NaN
20040408,003618,1384567,34.398770,-122.268140,NaN,15.182,32.866,40.737,1435.32,0.0, NaN,13.819,13.783, NaN,24.288,   NaN,13.85,1016.27,87.88,13.52,15.0,13.4,12.5,13.1,335.9,334.1,12.1,12.7,NaN, NaN,NaN,287.7,NaN,1081384580,NaN,NaN,1.3,002179,   NaN,320.4,34.398650,-122.268070,-0.42,NaN,NaN,15.186, NaN,NaN,NaN, NaN, NaN
20040408,003648,1384598,34.398890,-122.268320,NaN,15.070,32.949,40.726,1457.37,0.0, NaN,13.819,13.783, NaN,24.376,   NaN,13.86,1016.32,87.98,13.52,12.1,10.6,12.2,13.1,333.7,332.0,11.7,12.6,NaN, NaN,NaN,345.3,NaN,1081384610,NaN,NaN,2.0,002209,   NaN,323.2,34.398760,-122.268250,-0.32,NaN,NaN,15.074, NaN,NaN,NaN, NaN, NaN